{"data":{"norad_id":63423,"intl_designator":"2025-065AA","name":"STARLINK-33675","alt_names":[],"object_type":"PAYLOAD","status":"ACTIVE","operator":null,"country":"US","launch_date":"2025-03-31","launch_site_code":"AFETR","launch_vehicle":null,"mission":null,"orbit_class":"UNKNOWN","rcs_meters":null,"size_class":null,"mass_kg":null,"dimensions":null,"purposes":["comms"],"wikipedia_slug":null,"has_3d_model":false,"image_url":null,"decayed_at":null,"tle_current":{"epoch":"2026-05-25T01:26:10.892256Z","epoch_age_seconds":73444,"freshness":"FRESH","line1":"1 63423U 25065AA  26145.05984829  .00022783  00000+0  83469-3 0  9993","line2":"2 63423  43.0044  35.3861 0001363 274.3759  85.6937 15.27587871 64527","mean_motion":15.27587871,"eccentricity":0.0001363,"inclination_deg":43.0044,"raan_deg":35.3861,"arg_perigee_deg":274.3759,"mean_anomaly_deg":85.6937,"bstar":0.00083469,"rev_number":6452,"period_min":94.266262997842,"perigee_km":482.09035108277,"apogee_km":483.96070398778,"semimajor_km":6861.1625275353,"source":"CELESTRAK","updated_at":"2026-05-25T13:38:19.993627Z"}}}